• In Germany
  • List of Countries
  • For 7 days
  • Water Temperature
  • Satellite Maps
  • Weather Map
  • Weather Widgets
  • user-avatar
    Login

    Hourly Weather Gorodna 1

    Today, 22 September, Saturday

    Time Temperature Precipitation Wind Pressure Humidity
    00:00 +16°C° 0 mm 2 mps 741 mmHg 93%
    01:00 +16°C° 0 mm 3 mps 741 mmHg 92%
    02:00 +16°C° 0 mm 3 mps 741 mmHg 90%
    03:00 +16°C° 0 mm 3 mps 741 mmHg 88%
    04:00 +14°C° 0 mm 3 mps 740 mmHg 87%
    05:00 +14°C° 0 mm 4 mps 740 mmHg 85%
    06:00 +17°C° 0 mm 4 mps 739 mmHg 79%
    07:00 +18°C° 0 mm 4 mps 739 mmHg 74%
    08:00 +19°C° 0 mm 5 mps 739 mmHg 68%
    09:00 +21°C° 0 mm 5 mps 738 mmHg 61%
    10:00 +22°C° 0 mm 6 mps 738 mmHg 54%
    11:00 +24°C° 0 mm 7 mps 738 mmHg 47%
    12:00 +24°C° 0 mm 6 mps 737 mmHg 46%
    13:00 +24°C° 0 mm 6 mps 737 mmHg 45%
    14:00 +26°C° 0 mm 6 mps 737 mmHg 44%
    15:00 +23°C° 0.1 mm 5 mps 737 mmHg 53%
    16:00 +21°C° 0.1 mm 5 mps 737 mmHg 62%
    17:00 +19°C° 0.1 mm 4 mps 736 mmHg 71%
    18:00 +17°C° 0.3 mm 4 mps 737 mmHg 76%
    19:00 +14°C° 0.3 mm 3 mps 737 mmHg 81%
    20:00 +12°C° 0.3 mm 3 mps 737 mmHg 86%
    21:00 +11°C° 0.1 mm 3 mps 737 mmHg 87%
    22:00 +11°C° 0.1 mm 3 mps 738 mmHg 89%
    23:00 +10°C° 0.1 mm 3 mps 738 mmHg 90%

    Tomorrow, 23 September, Sunday

    Time Temperature Precipitation Wind Pressure Humidity
    00:00 +10°C° 0.4 mm 2 mps 738 mmHg 91%
    01:00 +10°C° 0.4 mm 2 mps 738 mmHg 92%
    02:00 +9°C° 0.4 mm 2 mps 738 mmHg 93%
    03:00 +9°C° 0.3 mm 2 mps 737 mmHg 94%
    04:00 +9°C° 0.3 mm 2 mps 737 mmHg 95%
    05:00 +9°C° 0.3 mm 2 mps 737 mmHg 95%
    06:00 +9°C° 0.1 mm 2 mps 737 mmHg 93%
    07:00 +10°C° 0.1 mm 3 mps 737 mmHg 92%
    08:00 +10°C° 0.1 mm 3 mps 737 mmHg 90%
    09:00 +11°C° 0 mm 3 mps 737 mmHg 81%
    10:00 +12°C° 0 mm 4 mps 737 mmHg 73%
    11:00 +13°C° 0 mm 4 mps 736 mmHg 64%
    12:00 +14°C° 0.1 mm 4 mps 736 mmHg 62%
    13:00 +14°C° 0.1 mm 4 mps 736 mmHg 59%
    14:00 +15°C° 0.1 mm 5 mps 736 mmHg 57%
    15:00 +14°C° 0.1 mm 4 mps 736 mmHg 61%
    16:00 +13°C° 0.1 mm 3 mps 736 mmHg 65%
    17:00 +12°C° 0.1 mm 3 mps 735 mmHg 69%
    18:00 +11°C° 0 mm 3 mps 736 mmHg 73%
    19:00 +10°C° 0 mm 3 mps 736 mmHg 77%
    20:00 +9°C° 0 mm 3 mps 736 mmHg 81%
    21:00 +8°C° 0 mm 3 mps 736 mmHg 82%
    22:00 +8°C° 0 mm 3 mps 736 mmHg 84%
    23:00 +8°C° 0 mm 3 mps 736 mmHg 85%

    Day after tomorrow, 24 September, Monday

    Time Temperature Precipitation Wind Pressure Humidity
    00:00 +7°C° 0 mm 3 mps 736 mmHg 87%
    01:00 +7°C° 0 mm 2 mps 736 mmHg 89%
    02:00 +6°C° 0 mm 2 mps 736 mmHg 91%
    03:00 +6°C° 0 mm 2 mps 736 mmHg 93%
    04:00 +6°C° 0 mm 2 mps 736 mmHg 94%
    05:00 +5°C° 0 mm 2 mps 735 mmHg 96%
    06:00 +6°C° 0 mm 2 mps 735 mmHg 92%
    07:00 +7°C° 0 mm 2 mps 735 mmHg 88%
    08:00 +8°C° 0 mm 2 mps 735 mmHg 84%
    09:00 +9°C° 0.4 mm 3 mps 734 mmHg 84%
    10:00 +9°C° 0.4 mm 3 mps 733 mmHg 84%
    11:00 +10°C° 0.4 mm 4 mps 732 mmHg 84%
    12:00 +8°C° 2.6 mm 4 mps 731 mmHg 87%
    13:00 +8°C° 2.6 mm 5 mps 730 mmHg 90%
    14:00 +7°C° 2.6 mm 5 mps 729 mmHg 93%
    15:00 +7°C° 3.2 mm 5 mps 728 mmHg 93%
    16:00 +7°C° 3.2 mm 5 mps 726 mmHg 94%
    17:00 +6°C° 3.2 mm 5 mps 725 mmHg 94%
    18:00 +7°C° 3 mm 5 mps 723 mmHg 94%
    19:00 +7°C° 3 mm 5 mps 722 mmHg 95%
    20:00 +7°C° 3 mm 5 mps 721 mmHg 95%
    21:00 +7°C° 2.2 mm 5 mps 720 mmHg 95%
    22:00 +7°C° 2.2 mm 5 mps 720 mmHg 94%
    23:00 +7°C° 2.2 mm 6 mps 719 mmHg 94%

    25 September, Tuesday

    Time Temperature Precipitation Wind Pressure Humidity
    00:00 +7°C° 1.3 mm 6 mps 720 mmHg 93%
    01:00 +5°C° 1.3 mm 7 mps 720 mmHg 92%
    02:00 +5°C° 1.3 mm 8 mps 720 mmHg 91%
    03:00 +5°C° 1 mm 8 mps 721 mmHg 90%
    04:00 +5°C° 1 mm 9 mps 722 mmHg 89%
    05:00 +3°C° 1 mm 9 mps 723 mmHg 88%
    06:00 +3°C° 0.6 mm 9 mps 724 mmHg 87%
    07:00 +3°C° 0.6 mm 9 mps 725 mmHg 87%
    08:00 +3°C° 0.6 mm 9 mps 726 mmHg 86%
    09:00 +3°C° 0.4 mm 9 mps 727 mmHg 86%
    10:00 +3°C° 0.4 mm 9 mps 728 mmHg 85%
    11:00 +4°C° 0.4 mm 8 mps 730 mmHg 84%
    12:00 +4°C° 0.3 mm 8 mps 730 mmHg 82%
    13:00 +4°C° 0.3 mm 8 mps 731 mmHg 79%
    14:00 +5°C° 0.3 mm 8 mps 732 mmHg 76%
    15:00 +5°C° 0.1 mm 7 mps 733 mmHg 73%
    16:00 +5°C° 0.1 mm 6 mps 734 mmHg 71%
    17:00 +4°C° 0.1 mm 6 mps 734 mmHg 69%
    18:00 +4°C° 0 mm 6 mps 735 mmHg 70%
    19:00 +3°C° 0 mm 5 mps 735 mmHg 71%
    20:00 +2°C° 0 mm 5 mps 736 mmHg 71%
    21:00 +2°C° 0 mm 5 mps 736 mmHg 72%
    22:00 +1°C° 0 mm 5 mps 736 mmHg 72%
    23:00 +1°C° 0 mm 4 mps 737 mmHg 72%

    26 September, Wednesday

    Time Temperature Precipitation Wind Pressure Humidity
    00:00 0°C° 0 mm 4 mps 737 mmHg 74%
    01:00 0°C° 0 mm 4 mps 737 mmHg 76%
    02:00 0°C° 0 mm 4 mps 737 mmHg 77%
    03:00 0°C° 0 mm 3 mps 737 mmHg 81%
    04:00 0°C° 0 mm 3 mps 738 mmHg 86%
    05:00 -1°C° 0 mm 2 mps 738 mmHg 90%
    06:00 +1°C° 0 mm 2 mps 738 mmHg 85%
    07:00 +3°C° 0 mm 2 mps 738 mmHg 80%
    08:00 +5°C° 0 mm 1 mps 739 mmHg 76%
    09:00 +5°C° 0 mm 2 mps 739 mmHg 68%
    10:00 +6°C° 0 mm 2 mps 740 mmHg 59%
    11:00 +8°C° 0 mm 2 mps 740 mmHg 51%
    12:00 +8°C° 0 mm 2 mps 741 mmHg 50%
    13:00 +8°C° 0 mm 2 mps 741 mmHg 49%
    14:00 +9°C° 0 mm 2 mps 742 mmHg 48%
    15:00 +8°C° 0 mm 2 mps 742 mmHg 53%
    16:00 +7°C° 0 mm 2 mps 743 mmHg 58%
    17:00 +7°C° 0 mm 1 mps 743 mmHg 63%
    18:00 +6°C° 0 mm 1 mps 744 mmHg 66%
    19:00 +5°C° 0 mm 1 mps 744 mmHg 69%
    20:00 +4°C° 0 mm 1 mps 745 mmHg 72%
    21:00 +3°C° 0 mm 1 mps 745 mmHg 73%
    22:00 +3°C° 0 mm 1 mps 745 mmHg 73%
    23:00 +3°C° 0 mm 1 mps 745 mmHg 74%

    27 September, Thursday

    Time Temperature Precipitation Wind Pressure Humidity
    00:00 +2°C° 0 mm 2 mps 745 mmHg 74%
    01:00 +2°C° 0 mm 2 mps 745 mmHg 75%
    02:00 +2°C° 0 mm 2 mps 745 mmHg 75%
    03:00 +1°C° 0 mm 3 mps 745 mmHg 78%
    04:00 +2°C° 0 mm 3 mps 744 mmHg 80%
    05:00 +1°C° 0 mm 4 mps 744 mmHg 83%
    06:00 +3°C° 0 mm 4 mps 743 mmHg 80%
    07:00 +3°C° 0 mm 5 mps 743 mmHg 77%
    08:00 +4°C° 0 mm 6 mps 742 mmHg 75%
    09:00 +5°C° 0.4 mm 6 mps 742 mmHg 77%
    10:00 +5°C° 0.4 mm 7 mps 741 mmHg 79%
    11:00 +5°C° 0.4 mm 7 mps 740 mmHg 82%
    12:00 +5°C° 1 mm 7 mps 740 mmHg 84%
    13:00 +6°C° 1 mm 7 mps 739 mmHg 87%
    14:00 +6°C° 1 mm 8 mps 739 mmHg 89%
    15:00 +6°C° 0.7 mm 7 mps 738 mmHg 90%
    16:00 +6°C° 0.7 mm 7 mps 738 mmHg 91%
    17:00 +8°C° 0.7 mm 7 mps 737 mmHg 91%
    18:00 +8°C° 0.2 mm 7 mps 737 mmHg 91%
    19:00 +8°C° 0.2 mm 7 mps 737 mmHg 92%
    20:00 +8°C° 0.2 mm 7 mps 736 mmHg 92%
    21:00 +8°C° 0.4 mm 6 mps 736 mmHg 92%
    22:00 +8°C° 0.4 mm 6 mps 735 mmHg 92%
    23:00 +8°C° 0.4 mm 6 mps 735 mmHg 92%
    Show more